Regional Weather Roundup
Issued by NWS

Home | Current Version | Previous Version | Text Only | Print | Product List | Glossary On
Versions: 1 2 3 4 5 6 7 8 9 10 11 12 13 14 15 16 17 18 19 20 21 22 23 24 25 26 27 28 29 30 31 32 33 34 35 36 37 38 39 40 41 42 43 44 45 46 47 48 49 50
000
ASUS43 KOAX 021110
RWRNE

WEATHER ROUNDUP FOR NEBRASKA
NATIONAL WEATHER SERVICE OMAHA NE
500 AM CST MON MAR 02 2015

NOTES: SATELLITE DATA IS BEING USED TO AUGMENT CLOUD COVER ABOVE
       12000 FEET.
       "FAIR" INDICATES FEW OR NO CLOUDS BELOW 12,000 FEET WITH NO
       SIGNIFICANT WEATHER AND/OR OBSTRUCTIONS TO VISIBILITY.

  * THESE STATIONS DO NOT REPORT WEATHER SUCH AS RAIN...SNOW OR FOG.

NEZ001>004-019>022-054>056-021200-
NEBRASKA PANHANDLE

CITY           SKY/WX    TMP DP  RH WIND       PRES   REMARKS
SCOTTSBLUFF    CLOUDY    30  18  60 SE10      30.10F WCI  21
ALLIANCE       CLOUDY    22  14  71 S9        30.11F WCI  12
CHADRON        CLOUDY    29  16  58 S15G22    30.07F WCI  18
KIMBALL        CLOUDY    26  21  83 S15       30.06F WCI  13
SIDNEY         MOCLDY    25  18  74 S17G24    30.12F WCI  12
$$

NEZ057>060-069>072-079>082-021200-
SOUTHWEST NEBRASKA

CITY           SKY/WX    TMP DP  RH WIND       PRES   REMARKS
NORTH PLATTE   CLOUDY    24  13  62 E9        30.27F WCI  14
IMPERIAL         N/A     29  18  63 S10       30.22F WCI  20
LEXINGTON      CLOUDY    30  15  53 SE8       30.32S WCI  22
MCCOOK         CLOUDY    32  20  61 SE7       30.28F WCI  26
OGALLALA       MOCLDY    27  19  69 S6        30.20F WCI  21
$$

NEZ005>010-023>029-035>040-094-021200-
NORTH CENTRAL NEBRASKA

CITY           SKY/WX    TMP DP  RH WIND       PRES   REMARKS
VALENTINE      CLEAR     16   8  71 SE6       30.25F WCI   7
AINSWORTH      CLEAR     20  10  66 SE7       30.27F WCI  11
BROKEN BOW     MOCLDY    24  12  60 E7        30.31F WCI  16
O`NEILL        PTCLDY    18  10  72 SE6       30.36F WCI  10
ORD            MOCLDY    18  10  71 CALM      30.36F
THEDFORD       MOCLDY    24  12  60 SE10      30.24F WCI  13
$$

NEZ041-046>049-061>064-073>077-083>087-021200-
SOUTH CENTRAL NEBRASKA

CITY           SKY/WX    TMP DP  RH WIND       PRES   REMARKS
GRAND ISLAND   MOCLDY    26  12  55 E9        30.39F WCI  17
AURORA         MOCLDY    25  14  63 E8        30.38F WCI  16
HASTINGS       CLOUDY    29  12  49 E12       30.34F WCI  19
HEBRON         CLOUDY    29  23  79 CALM      30.40F
HOLDREGE       CLOUDY    29  16  59 SE7       30.33F WCI  22
KEARNEY *      CLOUDY    28  12  50 E8        30.35S WCI  20
YORK           CLOUDY    25  16  68 SE8       30.41F WCI  16
$$

NEZ011>018-030>034-042>045-021200-
NORTHEAST NEBRASKA

CITY           SKY/WX    TMP DP  RH WIND       PRES   REMARKS
NORFOLK        MOCLDY    15  10  80 CALM      30.43R
ALBION         MOCLDY    15   9  74 CALM      30.41R
BLAIR          PTCLDY    23  15  70 E5        30.45F WCI  17
COLUMBUS *     MOCLDY    19   9  63 E6        30.44F WCI  11
FREMONT        MOCLDY    21  15  76 CALM      30.46F
TEKAMAH        MOCLDY    16  11  80 CALM      30.50R
WAYNE          PTCLDY     7   2  82 CALM      30.46R
$$

NEZ050>053-065>068-078-088>093-021200-
SOUTHEAST NEBRASKA

CITY           SKY/WX    TMP DP  RH WIND       PRES   REMARKS
LINCOLN        MOCLDY    26  15  63 CALM      30.46F
OMAHA EPPLEY   CLOUDY    18  14  84 NE5       30.48S WCI  11
BEATRICE       MOCLDY    25  20  83 E3        30.44S
FALLS CITY     PTCLDY    23  20  88 SE3       30.46S
NEBRASKA CITY  PTCLDY    24  17  73 NE5       30.46S WCI  18
PLATTSMOUTH    MOCLDY    25  14  63 E5        30.46F WCI  19
$$

NEZ044-045-051>053-067-021200-
OMAHA AREA

CITY           SKY/WX    TMP DP  RH WIND       PRES   REMARKS
OMAHA EPPLEY   CLOUDY    18  14  84 NE5       30.48S WCI  11
BLAIR          PTCLDY    23  15  70 E5        30.45F WCI  17
FREMONT        MOCLDY    21  15  76 CALM      30.46F
MILLARD        PTCLDY    22  17  79 CALM      30.47F
OFFUTT AFB     PTCLDY    22  15  71 NE5       30.47S WCI  16
PLATTSMOUTH    MOCLDY    25  14  63 E5        30.46F WCI  19
WAHOO          FAIR      18  12  77 NE6       30.45F WCI  10
$$


USA.gov is the U.S. government's official web portal to all federal, state and local government web resources and services.